Regional Weather Roundup
Issued by NWS

Home | Current Version | Previous Version | Graphics & Text | Print | Product List | Glossary On
Versions: 1 2 3 4 5 6 7 8 9 10 11 12 13 14 15 16 17 18 19 20 21 22 23 24 25 26 27 28 29 30 31 32 33 34 35 36 37 38 39 40 41 42 43 44 45 46 47 48 49 50
000
ASUS43 KDMX 300407
RWRIA

WEATHER ROUNDUP FOR IOWA
NATIONAL WEATHER SERVICE DES MOINES IA
1100 PM CDT FRI AUG 29 2014

NOTE: "FAIR" INDICATES FEW OR NO CLOUDS BELOW 12,000 FEET WITH NO
SIGNIFICANT WEATHER AND/OR OBSTRUCTIONS TO VISIBILITY.

* - THESE STATIONS ARE NOT NWS STATIONS...THUS NOT UNDER NWS
QUALITY CONTROL.  THEY ALSO DO NOT REPORT WEATHER SUCH
AS PRECIPITATION OR FOG.

IAZ001>003-012>014-020>022-031>034-043>046-300500-
   NORTHWEST IOWA

CITY           SKY/WX    TMP DP  RH WIND       PRES   REMARKS
CARROLL *      RAIN      66  66 100 NW7       29.81R
CHEROKEE *     CLOUDY    66  66 100 CALM      29.82S
DENISON *      CLOUDY    66  66 100 W5        29.82R
LE MARS *        N/A     66  64  94 CALM      29.82S
ORANGE CITY *  CLEAR     66  64  94 CALM      29.83R
SHELDON *      CLEAR     63  63 100 CALM      29.82R
SIOUX CITY     PTCLDY    66  64  93 SW6       29.82S
SPENCER        CLOUDY    67  65  93 W3        29.82R
STORM LAKE *   DRIZZLE   66  66 100 CALM      29.83R
$$

IAZ055>058-069>071-079>083-090>094-300500-
   SOUTHWEST IOWA

CITY           SKY/WX    TMP DP  RH WIND       PRES   REMARKS
ATLANTIC *     CLOUDY    68  66  94 CALM      29.82R
AUDUBON *      HVY RAIN  70  66  88 NW7       29.84R
CLARINDA *       N/A     66  66 100 CALM      29.84R
COUNCIL BLFS * MOCLDY    68  68 100 W8        29.83R
CRESTON *      PTCLDY    68  66  94 S10       29.83R
HARLAN  *      LGT RAIN  66  66 100 N6        29.86R
LAMONI         TSTM      65  64  97 NW6       29.86R FOG
RED OAK *      CLEAR     66  66 100 SW3       29.83R
SHENANDOAH *   CLEAR     68  66  94 CALM      29.83R
$$

IAZ047>049-059>061-072>074-084-300500-
   CENTRAL IOWA

CITY           SKY/WX    TMP DP  RH WIND       PRES   REMARKS
AMES           LGT RAIN  68  67  96 W8        29.79R FOG
ANKENY *       PTCLDY    68  66  94 S3        29.78S
CHARITON *     CLOUDY    70  68  94 S7        29.82R
DES MOINES     MOCLDY    70  66  87 S6        29.79R
GRINNELL*      CLOUDY    68  68 100 S5        29.81S FOG
KNOXVILLE *    PTCLDY    68  66  94 S6        29.80S
MARSHALLTOWN   CLOUDY    68  67  96 S5        29.78F
PELLA *        PTCLDY    68  68 100 S6        29.81S
PERRY *        CLOUDY    66  64  94 SW3       29.80R
$$

IAZ004>006-015-016-023>025-035-036-300500-
   NORTH CENTRAL IOWA

CITY           SKY/WX    TMP DP  RH WIND       PRES   REMARKS
ALGONA *       DRIZZLE   68  68 100 CALM      29.79S
CLARION *      CLOUDY    68  68 100 CALM      29.78S
ESTHERVILLE    CLOUDY    67  66  97 N3        29.81R FOG
FORT DODGE *   CLOUDY    66  64  94 N3        29.79S
MASON CITY     CLOUDY    67  65  93 NW3       29.79F
FOREST CITY *  MOCLDY    64  64 100 CALM      29.79F
IOWA FALLS *   CLOUDY    70  68  94 CALM      29.79S FOG
$$

IAZ007>011-017>019-026>030-037>042-050>054-066-300500-
   NORTHEAST IOWA

CITY           SKY/WX    TMP DP  RH WIND       PRES   REMARKS
CEDAR RAPIDS   PTCLDY    68  68 100 S7        29.80S FOG
CHARLES CITY * LGT RAIN  68  66  94 S3        29.79S
CLINTON *      CLOUDY    72  66  83 S12G18    29.84S
DECORAH *        N/A     68  68 100 CALM      29.78F
DUBUQUE        CLOUDY    73  68  84 S16       29.81R
MONTICELLO *   CLOUDY    70  70 100 S9        29.80F
OELWEIN *      LGT RAIN  68  66  94 S5        29.80S
WATERLOO       CLOUDY    68  66  93 S5        29.78S
$$

IAZ064-065-067-068-078-300500-
   EAST CENTRAL IOWA

CITY           SKY/WX    TMP DP  RH WIND       PRES   REMARKS
DAVENPORT      CLOUDY    72  68  87 S14G23    29.82F
IOWA CITY      PTCLDY    71  70  96 S7        29.82S
MT. PLEASANT * PTCLDY    72  70  94 S7        29.84R
MUSCATINE *    CLEAR     73  70  88 S10       29.82S
QUAD CITIES    CLOUDY    72  67  84 S9        29.82F
$$

IAZ062-063-075>077-085>089-095>099-300500-
   SOUTHEAST IOWA

CITY           SKY/WX    TMP DP  RH WIND       PRES   REMARKS
BURLINGTON     CLOUDY    71  70  96 S8        29.83F
FAIRFIELD *    CLEAR     72  70  94 S8        29.82F
FORT MADISON * CLEAR     73  72  94 S6        29.84F
KEOKUK *       CLEAR     72  72 100 S9        29.84S
OSKALOOSA *    MOCLDY    68  68 100 S5        29.82S FOG
CENTERVILLE *  CLEAR     68  68 100 SE5       29.84S
OTTUMWA        PTCLDY    70  69  97 S7        29.82S
WASHINGTON *   CLEAR     72  72 100 S8        29.82S
$$

ABBREVIATIONS USED IN REMARKS
   TC - TEMPERATURES IN CELSIUS
  WCI - WIND CHILL INDEX
   HX - HEAT INDEX
  VSB - VISIBILITY
$$




USA.gov is the U.S. government's official web portal to all federal, state and local government web resources and services.